Ely, NV

2:17 AM PDT on July 27, 2017 (GMT -0700)
Ely

Weather History for KELY - February, 2012

Change the Weather History Date:

Monday, February 20, 2012

  Actual Average Record
Temperature  
Mean Temperature 24 °F 30 °F  
Max Temperature 40 °F 44 °F 66 °F (1977)
Min Temperature 7 °F 17 °F -13 °F (1990)
Degree Days  
Heating Degree Days 41 35  
Month to date heating degree days 726 740  
Since 1 July heating degree days 4599 5069  
Cooling Degree Days 0 0  
Month to date cooling degree days 0 0  
Year to date cooling degree days 0 0  
Moisture  
Dew Point 11 °F    
Average Humidity 55    
Maximum Humidity 80    
Minimum Humidity 29    
Precipitation  
Precipitation 0.00 in 0.02 in 0.50 in (1897)
Month to date precipitation 0.71 0.51  
Year to date precipitation 1.38 1.21  
Snow  
Snow 0.00 in 0.30 in 5.00 in (1897)
Month to date snowfall 9.9 5.7  
Since 1 July snowfall 30.7 32.7  
Snow Depth 3.00 in    
Sea Level Pressure  
Sea Level Pressure 30.15 in    
Wind  
Wind Speed 7 mph (SSW)    
Max Wind Speed 14 mph    
Max Gust Speed 29 mph    
Visibility 10 miles    
Events      
T = Trace of Precipitation, MM = Missing Value Source: NWS Daily Summary

Daily Weather History Graph

Daily Weather History Graph

Search for Another Location

Airport or City:

Trip Planner

Search our weather history database for the weather conditions in past years. The results will help you decide how hot, cold, wet, or windy it might be!

Date:

Astronomy

Feb. 20, 2012 Rise Set
Actual Time 6:25 AM PST 5:21 PM PST
Civil Twilight 5:58 AM PST 5:48 PM PST
Nautical Twilight 5:26 AM PST 6:20 PM PST
Astronomical Twilight 4:55 AM PST 6:51 PM PST
Moon 5:24 AM PST (2/20) 4:30 PM PST (2/20)
Length of Visible Light 11h 50m
Length of Day
10h 56m
Waning Crescent, 1% of the Moon is Illuminated
Feb 20
Waning Crescent
Feb 21
New
Feb 29
First Quarter
Mar 8
Full
Mar 14
Last Quarter

Hourly Weather History & Observations

Time (PST) Temp. Windchill Dew Point Humidity Pressure Visibility Wind Dir Wind Speed Gust Speed Precip Events Conditions
12:53 AM 10.0 °F -2.9 °F 3.9 °F 76% 30.14 in 10.0 mi South 9.2 mph - N/A   Partly Cloudy
1:53 AM 9.0 °F -5.9 °F 3.0 °F 77% 30.13 in 10.0 mi South 11.5 mph - N/A   Clear
2:53 AM 8.1 °F -7.7 °F 1.9 °F 76% 30.14 in 10.0 mi South 12.7 mph - N/A   Clear
3:53 AM 8.1 °F -8.4 °F 1.9 °F 76% 30.11 in 10.0 mi South 13.8 mph - N/A   Clear
4:53 AM 7.0 °F -6.6 °F 1.9 °F 80% 30.15 in 10.0 mi SSW 9.2 mph - N/A   Clear
5:53 AM 7.0 °F -8.3 °F 1.0 °F 77% 30.18 in 10.0 mi South 11.5 mph - N/A   Clear
6:53 AM 7.0 °F -3.3 °F 1.0 °F 77% 30.21 in 10.0 mi SSE 5.8 mph - N/A   Clear
7:53 AM 14.0 °F 2.9 °F 6.1 °F 71% 30.22 in 10.0 mi South 8.1 mph - N/A   Clear
8:53 AM 23.0 °F 15.8 °F 9.0 °F 55% 30.17 in 10.0 mi South 5.8 mph - N/A   Clear
9:53 AM 28.9 °F 22.8 °F 10.0 °F 45% 30.15 in 10.0 mi South 5.8 mph - N/A   Clear
10:53 AM 34.0 °F - 6.1 °F 31% 30.14 in 10.0 mi Calm Calm - N/A   Clear
11:53 AM 37.0 °F - 9.0 °F 31% 30.11 in 10.0 mi Calm Calm - N/A   Clear
12:53 PM 37.9 °F 30.5 °F 12.9 °F 36% 30.11 in 10.0 mi SSW 11.5 mph - N/A   Overcast
1:53 PM 37.9 °F 33.5 °F 14.0 °F 38% 30.09 in 10.0 mi West 5.8 mph - N/A   Overcast
2:53 PM 37.9 °F 31.5 °F 17.1 °F 43% 30.12 in 10.0 mi WSW 9.2 mph - N/A   Partly Cloudy
3:53 PM 37.0 °F 34.5 °F 17.1 °F 44% 30.11 in 10.0 mi SSW 3.5 mph - N/A   Overcast
4:53 PM 36.0 °F 33.3 °F 17.1 °F 46% 30.15 in 10.0 mi WSW 3.5 mph - N/A   Overcast
5:53 PM 35.1 °F 30.1 °F 18.0 °F 50% 30.18 in 10.0 mi West 5.8 mph - N/A   Overcast
6:53 PM 34.0 °F 29.8 °F 19.9 °F 56% 30.19 in 10.0 mi East 4.6 mph - N/A   Overcast
7:53 PM 33.1 °F 30.0 °F 19.0 °F 56% 30.18 in 10.0 mi East 3.5 mph - N/A   Clear
8:53 PM 30.9 °F 23.5 °F 19.0 °F 61% 30.17 in 10.0 mi West 8.1 mph - N/A   Overcast
9:53 PM 32.0 °F 26.4 °F 19.9 °F 61% 30.15 in 10.0 mi West 5.8 mph - N/A   Overcast
10:53 PM 30.9 °F - 21.0 °F 67% 30.11 in 10.0 mi Calm Calm - N/A   Overcast
11:53 PM 28.9 °F 25.2 °F 21.0 °F 72% 30.14 in 10.0 mi NNE 3.5 mph - N/A   Scattered Clouds